Location: Newark
(45.2500°N, 7.5833°E)
Time: 18:05:59
(UTC+00:00)

Tiros 1 despin weight - Pass Details

Date: 30 January 2020
Orbit: 594 x 642 km, 48.2° (Epoch: 23 February)

Event Time Altitude Azimuth Distance (km) Brightness Sun altitude
Rises 11:00:05 0° 268° (W) 2,857 ? 26.3°
Reaches altitude 10° 11:02:23 10° 271° (W) 1,961 ? 26.3°
Maximum altitude 11:06:51 62° 353° (N) 696 ? 26.5°
Drops below altitude 10° 11:11:24 10° 74° (ENE) 1,994 ? 26.6°
Sets 11:13:46 0° 78° (ENE) 2,909 ? 26.7°
